Regional Weather Roundup
Issued by NWS

Home | Current Version | Previous Version | Graphics & Text | Print | Product List | Glossary Off
Versions: 1 2 3 4 5 6 7 8 9 10 11 12 13 14 15 16 17 18 19 20 21 22 23 24 25 26 27

000
ASUS45 KCYS 271710
RWRWY

WYOMING REGIONAL WEATHER ROUNDUP
NATIONAL WEATHER SERVICE CHEYENNE WY
1100 AM MDT SUN MAY 27 2018

NOTE:  "FAIR" INDICATES FEW OR NO CLOUDS BELOW 12,000 FEET
WITH NO SIGNIFICANT WEATHER AND/OR OBSTRUCTIONS TO VISIBILITY.

WYZ001-271800-
YELLOWSTONE NATIONAL PARK

CITY           SKY/WX    TMP DP  RH WIND       PRES   REMARKS
LK YELLOWSTONE   N/A     52  37  56 CALM      30.18F
W YELLOWSTONE  NOT AVBL

$$
WYZ002>013-054>058-071-098>099-271800-
NORTHERN WYOMING

CITY           SKY/WX    TMP DP  RH WIND       PRES   REMARKS
JACKSON        FAIR      63  41  44 N22G35    30.02F
CODY           FAIR      62  48  60 NW8       30.09F
GREYBULL       FAIR      69  51  52 NW14G20   30.01R
WORLAND        FAIR      68  51  54 N14       30.02R
SHERIDAN       PTSUNNY   64  55  72 N5        30.03R
BUFFALO        CLOUDY    58  52  80 NW18      30.05F
GILLETTE       CLOUDY    63  53  70 NW14      30.04R
NEWCASTLE      FAIR      79  41  25 NE13G32   29.92S

$$
WYZ014>020-022>026-101>103-271800-
CENTRAL WYOMING

CITY           SKY/WX    TMP DP  RH WIND       PRES   REMARKS
BIG PINEY      FAIR      68  39  34 SE30G44   30.02R
PINEDALE       FAIR      66  37  34 E24G37    30.03S
DUBOIS         FAIR      55  37  50 SE21G26   30.10F
LANDER         CLOUDY    60  48  64 N8        30.03F
RIVERTON       PTSUNNY   66  47  50 NE17      30.04F
CASPER         FAIR      70  52  52 NE16G23   30.01F
DOUGLAS        FAIR      74  53  48 NE18G26   29.97F

$$
WYZ021-027>030-104>119-271800-
SOUTHERN WYOMING

CITY           SKY/WX    TMP DP  RH WIND       PRES   REMARKS
EVANSTON       FAIR      56  41  57 SW16G23   30.02R
FORT BRIDGER   FAIR      63  38  39 W6        30.04S
ROCK SPRINGS   FAIR      67  17  14 SE16G23   30.01S
DIXON          FAIR      72  16  11 CALM      30.02F
RAWLINS        FAIR      70  46  42 E22G32    30.03F
SARATOGA       FAIR      70  37  30 E7        30.02F
LARAMIE        PTSUNNY   69  47  45 E17G23    30.06S
CHEYENNE       FAIR      68  55  63 N17G28    29.99F
TORRINGTON     FAIR      75  56  51 NE14      29.89S
PINE BLUFFS    FAIR      70  55  60 N14       29.94R

$$




USA.gov is the U.S. government's official web portal to all federal, state and local government web resources and services.